NKS128 KLAX-KSLC

Flight info

Callsign NKS128
Flight time 1h 22m
Altitude 37000
Route ORCKA5 LAS Q70 BLIPP Q842 WINEN MLF QWENN6
Aircraft A320/M-SDE3FGHIRWY/LB1

Departure

Time 2026-04-20 02:03
Airport Los Angeles International Airport (KLAX)

Arrival

Time 2026-04-20 03:25
Airport Salt Lake City International Airport (KSLC)
Time Latitude Longitude Altitude Speed Heading
2026-04-20 01:25 33.94653 -118.40478 93 ft 0 kts 96°
2026-04-20 01:39 33.94655 -118.40500 93 ft 4 kts 96°
2026-04-20 01:39 33.94658 -118.40529 93 ft 3 kts 95°
2026-04-20 01:39 33.94655 -118.40557 93 ft 4 kts 44°
2026-04-20 01:39 33.94634 -118.40565 92 ft 4 kts 354°
2026-04-20 01:40 33.94609 -118.40562 92 ft 1 kts 360°
2026-04-20 01:40 33.94634 -118.40564 92 ft 4 kts 354°
2026-04-20 01:40 33.94647 -118.40566 93 ft 0 kts 354°
2026-04-20 01:43 33.94658 -118.40567 93 ft 6 kts 355°
2026-04-20 01:43 33.94709 -118.40573 94 ft 0 kts 353°
2026-04-20 01:43 33.94711 -118.40574 94 ft 0 kts 353°
2026-04-20 01:56 33.94723 -118.40575 95 ft 6 kts 353°
2026-04-20 01:56 33.94783 -118.40543 93 ft 12 kts 64°
2026-04-20 01:56 33.94789 -118.40495 96 ft 0 kts 84°
2026-04-20 01:57 33.94797 -118.40444 93 ft 10 kts 78°
2026-04-20 01:57 33.94807 -118.40350 95 ft 13 kts 83°
2026-04-20 01:57 33.94826 -118.40227 93 ft 16 kts 79°
2026-04-20 01:57 33.94842 -118.40102 93 ft 10 kts 70°
2026-04-20 01:58 33.94906 -118.40075 93 ft 11 kts 17°
2026-04-20 01:58 33.94929 -118.40066 94 ft 0 kts 15°
2026-04-20 01:58 33.94930 -118.40066 94 ft 0 kts 15°
2026-04-20 01:58 33.94931 -118.40066 94 ft 0 kts 15°
2026-04-20 02:01 33.94974 -118.40065 95 ft 13 kts 355°
2026-04-20 02:02 33.95026 -118.40128 96 ft 10 kts 271°
2026-04-20 02:02 33.95014 -118.40207 98 ft 3 kts 266°
2026-04-20 02:02 33.95006 -118.40320 98 ft 30 kts 263°
2026-04-20 02:02 33.94948 -118.40883 99 ft 107 kts 263°
2026-04-20 02:03 33.94831 -118.42014 117 ft 164 kts 263°
2026-04-20 02:03 33.94684 -118.43502 560 ft 187 kts 262°
2026-04-20 02:03 33.94536 -118.45136 911 ft 208 kts 263°
2026-04-20 02:03 33.94389 -118.46957 1274 ft 232 kts 263°
2026-04-20 02:04 33.94195 -118.48899 2093 ft 236 kts 261°
2026-04-20 02:04 33.93974 -118.50900 2773 ft 247 kts 261°
2026-04-20 02:04 33.93756 -118.53011 3417 ft 256 kts 261°
2026-04-20 02:04 33.93553 -118.55088 4474 ft 247 kts 260°
2026-04-20 02:05 33.93340 -118.57162 4912 ft 250 kts 259°
2026-04-20 02:05 33.93127 -118.59330 5003 ft 272 kts 262°
2026-04-20 02:05 33.92917 -118.61619 5077 ft 276 kts 256°
2026-04-20 02:05 33.92221 -118.63764 5389 ft 275 kts 233°
2026-04-20 02:06 33.90919 -118.65421 6271 ft 273 kts 211°
2026-04-20 02:06 33.89191 -118.66313 7062 ft 272 kts 188°
2026-04-20 02:06 33.87319 -118.66261 7867 ft 272 kts 165°
2026-04-20 02:06 33.85614 -118.65280 8644 ft 276 kts 142°
2026-04-20 02:07 33.84360 -118.63512 9408 ft 283 kts 120°
2026-04-20 02:07 33.83806 -118.61223 10124 ft 292 kts 95°
2026-04-20 02:07 33.84136 -118.58786 10778 ft 303 kts 69°
2026-04-20 02:07 33.85254 -118.56565 11145 ft 323 kts 57°
2026-04-20 02:08 33.86603 -118.54290 11329 ft 344 kts 56°
2026-04-20 02:08 33.88041 -118.51936 11835 ft 352 kts 56°
2026-04-20 02:08 33.89471 -118.49611 12450 ft 356 kts 56°
2026-04-20 02:08 33.90949 -118.47196 13094 ft 360 kts 56°
2026-04-20 02:09 33.92416 -118.44775 13727 ft 364 kts 56°
2026-04-20 02:09 33.93900 -118.42288 14292 ft 367 kts 57°
2026-04-20 02:09 33.95366 -118.39745 14853 ft 371 kts 58°
2026-04-20 02:09 33.96822 -118.37164 15412 ft 374 kts 58°
2026-04-20 02:10 33.98285 -118.34544 15970 ft 377 kts 58°
2026-04-20 02:10 33.99755 -118.31909 16531 ft 380 kts 58°
2026-04-20 02:10 34.01245 -118.29251 17090 ft 384 kts 58°
2026-04-20 02:10 34.02754 -118.26577 17649 ft 387 kts 57°
2026-04-20 02:11 34.04284 -118.23883 18209 ft 391 kts 57°
2026-04-20 02:11 34.05830 -118.21169 18704 ft 394 kts 57°
2026-04-20 02:11 34.07379 -118.18444 19036 ft 388 kts 57°
2026-04-20 02:11 34.08867 -118.15823 19138 ft 372 kts 57°
2026-04-20 02:12 34.10341 -118.13215 19256 ft 383 kts 57°
2026-04-20 02:12 34.11865 -118.10507 19455 ft 396 kts 57°
2026-04-20 02:12 34.13422 -118.07739 19890 ft 401 kts 57°
2026-04-20 02:12 34.14995 -118.04943 20350 ft 405 kts 57°
2026-04-20 02:13 34.16584 -118.02114 20812 ft 409 kts 57°
2026-04-20 02:13 34.18188 -117.99263 21312 ft 412 kts 57°
2026-04-20 02:13 34.19807 -117.96390 21787 ft 415 kts 56°
2026-04-20 02:13 34.21441 -117.93492 22264 ft 419 kts 56°
2026-04-20 02:14 34.23084 -117.90575 22776 ft 421 kts 56°
2026-04-20 02:14 34.24735 -117.87640 23246 ft 424 kts 56°
2026-04-20 02:14 34.26397 -117.84677 23656 ft 427 kts 56°
2026-04-20 02:14 34.28065 -117.81693 24046 ft 430 kts 56°
2026-04-20 02:15 34.29744 -117.78690 24445 ft 432 kts 55°
2026-04-20 02:15 34.31432 -117.75677 24809 ft 434 kts 55°
2026-04-20 02:15 34.33129 -117.72642 25190 ft 436 kts 55°
2026-04-20 02:15 34.34829 -117.69593 25594 ft 438 kts 55°
2026-04-20 02:16 34.36557 -117.66551 25966 ft 439 kts 53°
2026-04-20 02:16 34.38312 -117.63575 26324 ft 441 kts 53°
2026-04-20 02:16 34.40122 -117.60571 26686 ft 442 kts 52°
2026-04-20 02:16 34.41950 -117.57563 27040 ft 444 kts 52°
2026-04-20 02:17 34.43780 -117.54550 27387 ft 445 kts 52°
2026-04-20 02:17 34.45610 -117.51518 27826 ft 446 kts 52°
2026-04-20 02:17 34.47439 -117.48464 28194 ft 448 kts 52°
2026-04-20 02:17 34.49265 -117.45394 28516 ft 450 kts 53°
2026-04-20 02:18 34.51106 -117.42293 28778 ft 454 kts 53°
2026-04-20 02:18 34.52956 -117.39169 29087 ft 457 kts 52°
2026-04-20 02:18 34.54811 -117.36032 29415 ft 459 kts 53°
2026-04-20 02:18 34.56677 -117.32875 29739 ft 461 kts 53°
2026-04-20 02:19 34.58551 -117.29707 30051 ft 463 kts 53°
2026-04-20 02:19 34.60432 -117.26532 30369 ft 463 kts 52°
2026-04-20 02:19 34.62311 -117.23364 30752 ft 462 kts 52°
2026-04-20 02:19 34.64185 -117.20200 31115 ft 461 kts 52°
2026-04-20 02:20 34.66052 -117.17038 31414 ft 460 kts 53°
2026-04-20 02:20 34.67916 -117.13875 31797 ft 460 kts 53°
2026-04-20 02:20 34.69775 -117.10717 32164 ft 459 kts 53°
2026-04-20 02:20 34.71606 -117.07602 32548 ft 459 kts 53°
2026-04-20 02:21 34.75305 -117.01297 33334 ft 457 kts 52°
2026-04-20 02:21 34.77151 -116.98151 33738 ft 456 kts 52°
2026-04-20 02:21 34.78990 -116.95015 34074 ft 456 kts 52°
2026-04-20 02:22 34.80831 -116.91872 34354 ft 456 kts 52°
2026-04-20 02:22 34.82675 -116.88726 34612 ft 457 kts 52°
2026-04-20 02:22 34.84523 -116.85574 34843 ft 458 kts 53°
2026-04-20 02:22 34.86372 -116.82416 35103 ft 458 kts 53°
2026-04-20 02:23 34.88208 -116.79274 35339 ft 459 kts 53°
2026-04-20 02:23 34.89750 -116.76626 35519 ft 459 kts 53°
2026-04-20 02:23 34.91607 -116.73458 35737 ft 460 kts 50°
2026-04-20 02:23 34.93695 -116.70518 35943 ft 459 kts 45°
2026-04-20 02:24 34.95869 -116.67664 36146 ft 460 kts 45°
2026-04-20 02:24 34.98051 -116.64805 36346 ft 460 kts 45°
2026-04-20 02:24 35.00232 -116.61941 36543 ft 461 kts 45°
2026-04-20 02:24 35.02416 -116.59064 36739 ft 462 kts 45°
2026-04-20 02:25 35.04598 -116.56184 36857 ft 464 kts 46°
2026-04-20 02:25 35.09003 -116.50352 36881 ft 469 kts 46°
2026-04-20 02:26 35.13433 -116.44488 36876 ft 470 kts 46°
2026-04-20 02:26 35.17117 -116.39609 36913 ft 470 kts 46°
2026-04-20 02:27 35.22275 -116.32772 36889 ft 470 kts 46°
2026-04-20 02:27 35.25988 -116.27840 36890 ft 470 kts 46°
2026-04-20 02:28 35.30419 -116.21940 36875 ft 471 kts 46°
2026-04-20 02:28 35.34819 -116.16067 36894 ft 471 kts 46°
2026-04-20 02:29 35.39255 -116.10142 36905 ft 471 kts 46°
2026-04-20 02:29 35.43689 -116.04213 36913 ft 472 kts 46°
2026-04-20 02:30 35.48121 -115.98270 36933 ft 472 kts 46°
2026-04-20 02:30 35.52544 -115.92325 36928 ft 472 kts 46°
2026-04-20 02:31 35.56969 -115.86368 36950 ft 472 kts 46°
2026-04-20 02:31 35.61395 -115.80394 36952 ft 472 kts 47°
2026-04-20 02:32 35.65813 -115.74414 36966 ft 473 kts 47°
2026-04-20 02:32 35.70197 -115.68383 36966 ft 473 kts 47°
2026-04-20 02:33 35.74565 -115.62334 36964 ft 473 kts 48°
2026-04-20 02:33 35.78949 -115.56280 36959 ft 473 kts 47°
2026-04-20 02:34 35.83343 -115.50224 36974 ft 474 kts 48°
2026-04-20 02:34 35.87707 -115.44188 36972 ft 474 kts 48°
2026-04-20 02:35 35.92097 -115.38097 36971 ft 474 kts 48°
2026-04-20 02:35 35.96491 -115.31986 36963 ft 474 kts 48°
2026-04-20 02:36 36.00865 -115.25892 36954 ft 475 kts 48°
2026-04-20 02:36 36.05243 -115.19780 36928 ft 475 kts 48°
2026-04-20 02:37 36.09858 -115.13945 36935 ft 474 kts 40°
2026-04-20 02:37 36.14848 -115.08606 36933 ft 474 kts 40°
2026-04-20 02:38 36.19830 -115.03238 36884 ft 475 kts 40°
2026-04-20 02:38 36.24813 -114.97858 36872 ft 475 kts 40°
2026-04-20 02:39 36.29761 -114.92505 36874 ft 475 kts 41°
2026-04-20 02:39 36.34734 -114.87112 36871 ft 475 kts 40°
2026-04-20 02:40 36.39710 -114.81715 36868 ft 475 kts 41°
2026-04-20 02:40 36.44682 -114.76311 36856 ft 475 kts 41°
2026-04-20 02:41 36.49631 -114.70934 36870 ft 475 kts 41°
2026-04-20 02:41 36.54613 -114.65508 36866 ft 475 kts 41°
2026-04-20 02:42 36.59583 -114.60086 36862 ft 475 kts 41°
2026-04-20 02:42 36.64538 -114.54654 36863 ft 475 kts 41°
2026-04-20 02:43 36.69503 -114.49208 36876 ft 475 kts 41°
2026-04-20 02:43 36.74848 -114.44512 36881 ft 473 kts 31°
2026-04-20 02:44 36.80470 -114.40123 36891 ft 473 kts 31°
2026-04-20 02:44 36.86007 -114.35776 36893 ft 473 kts 31°
2026-04-20 02:45 36.91580 -114.31386 36907 ft 473 kts 31°
2026-04-20 02:45 36.97144 -114.27006 36907 ft 473 kts 31°
2026-04-20 02:46 37.02714 -114.22611 36940 ft 473 kts 31°
2026-04-20 02:46 37.08274 -114.18210 36931 ft 473 kts 31°
2026-04-20 02:47 37.13835 -114.13804 36938 ft 473 kts 31°
2026-04-20 02:47 37.19402 -114.09395 36938 ft 473 kts 31°
2026-04-20 02:48 37.24968 -114.04984 36952 ft 473 kts 31°
2026-04-20 02:48 37.30530 -114.00557 36962 ft 473 kts 31°
2026-04-20 02:49 37.36051 -113.96148 36967 ft 473 kts 31°
2026-04-20 02:49 37.38865 -113.93898 36840 ft 472 kts 31°
2026-04-20 02:49 37.41600 -113.91712 36286 ft 472 kts 31°
2026-04-20 02:49 37.44375 -113.89497 35747 ft 471 kts 32°
2026-04-20 02:50 37.47137 -113.87291 35229 ft 470 kts 32°
2026-04-20 02:50 37.49883 -113.85089 34979 ft 468 kts 32°
2026-04-20 02:50 37.52624 -113.82885 34971 ft 468 kts 32°
2026-04-20 02:51 37.58129 -113.78457 34977 ft 470 kts 32°
2026-04-20 02:51 37.63642 -113.74021 34977 ft 470 kts 32°
2026-04-20 02:52 37.69158 -113.69576 34985 ft 470 kts 32°
2026-04-20 02:52 37.74682 -113.65120 34986 ft 470 kts 32°
2026-04-20 02:53 37.80159 -113.60692 34986 ft 470 kts 32°
2026-04-20 02:53 37.85682 -113.56217 34986 ft 471 kts 32°
2026-04-20 02:54 37.91206 -113.51733 34991 ft 471 kts 32°
2026-04-20 02:54 37.96352 -113.46609 34991 ft 471 kts 42°
2026-04-20 02:55 38.01240 -113.41060 34988 ft 471 kts 42°
2026-04-20 02:55 38.06127 -113.35507 34986 ft 471 kts 42°
2026-04-20 02:56 38.10973 -113.29992 34984 ft 470 kts 42°
2026-04-20 02:56 38.15837 -113.24441 34997 ft 470 kts 42°
2026-04-20 02:57 38.20707 -113.18885 35020 ft 470 kts 42°
2026-04-20 02:57 38.25586 -113.13315 35044 ft 470 kts 42°
2026-04-20 02:58 38.30457 -113.07747 35068 ft 470 kts 42°
2026-04-20 02:58 38.35411 -113.02331 35080 ft 470 kts 34°
2026-04-20 02:59 38.41172 -112.98584 35084 ft 469 kts 21°
2026-04-20 02:59 38.47199 -112.95384 35081 ft 469 kts 21°
2026-04-20 03:00 38.53226 -112.92175 35067 ft 469 kts 21°
2026-04-20 03:00 38.59258 -112.88949 35050 ft 469 kts 21°
2026-04-20 03:01 38.65235 -112.85745 34650 ft 468 kts 22°
2026-04-20 03:01 38.68221 -112.84144 34248 ft 462 kts 22°
2026-04-20 03:01 38.71178 -112.82558 33840 ft 458 kts 22°
2026-04-20 03:01 38.74101 -112.80986 33406 ft 454 kts 22°
2026-04-20 03:02 38.76998 -112.79423 32980 ft 449 kts 22°
2026-04-20 03:02 38.79866 -112.77872 32544 ft 445 kts 22°
2026-04-20 03:02 38.82704 -112.76341 32121 ft 440 kts 22°
2026-04-20 03:02 38.85522 -112.74828 31719 ft 436 kts 22°
2026-04-20 03:03 38.88307 -112.73333 31324 ft 433 kts 22°
2026-04-20 03:03 38.91071 -112.71842 30923 ft 429 kts 22°
2026-04-20 03:03 38.93821 -112.70359 30541 ft 426 kts 22°
2026-04-20 03:03 38.96510 -112.68906 30162 ft 423 kts 22°
2026-04-20 03:04 38.99220 -112.67436 29727 ft 421 kts 22°
2026-04-20 03:04 39.01910 -112.65977 29282 ft 419 kts 22°
2026-04-20 03:04 39.04583 -112.64525 28845 ft 417 kts 22°
2026-04-20 03:04 39.07254 -112.63076 28415 ft 415 kts 22°
2026-04-20 03:05 39.09906 -112.61636 27996 ft 413 kts 22°
2026-04-20 03:05 39.12549 -112.60202 27573 ft 411 kts 22°
2026-04-20 03:05 39.15181 -112.58768 27167 ft 410 kts 22°
2026-04-20 03:05 39.17804 -112.57339 26773 ft 408 kts 22°
2026-04-20 03:06 39.20420 -112.55913 26371 ft 407 kts 22°
2026-04-20 03:06 39.23021 -112.54494 25973 ft 405 kts 22°
2026-04-20 03:06 39.25614 -112.53081 25589 ft 404 kts 22°
2026-04-20 03:06 39.28197 -112.51673 25203 ft 402 kts 22°
2026-04-20 03:07 39.30764 -112.50272 24823 ft 400 kts 22°
2026-04-20 03:07 39.33309 -112.48851 24453 ft 397 kts 23°
2026-04-20 03:07 39.35836 -112.47404 24085 ft 395 kts 24°
2026-04-20 03:07 39.38303 -112.45971 23722 ft 393 kts 24°
2026-04-20 03:08 39.40789 -112.44524 23316 ft 390 kts 24°
2026-04-20 03:08 39.43266 -112.43089 22882 ft 387 kts 24°
2026-04-20 03:08 39.45727 -112.41670 22456 ft 384 kts 24°
2026-04-20 03:08 39.48166 -112.40268 22039 ft 382 kts 24°
2026-04-20 03:09 39.50591 -112.38875 21623 ft 379 kts 24°
2026-04-20 03:09 39.52962 -112.37511 21219 ft 376 kts 24°
2026-04-20 03:09 39.55350 -112.36133 20816 ft 374 kts 24°
2026-04-20 03:09 39.57716 -112.34765 20419 ft 372 kts 24°
2026-04-20 03:10 39.60075 -112.33401 20026 ft 369 kts 23°
2026-04-20 03:10 39.62414 -112.32050 19655 ft 367 kts 23°
2026-04-20 03:10 39.64747 -112.30701 19273 ft 366 kts 23°
2026-04-20 03:10 39.67062 -112.29362 18906 ft 364 kts 23°
2026-04-20 03:11 39.69371 -112.28023 18530 ft 362 kts 23°
2026-04-20 03:11 39.71671 -112.26689 18144 ft 361 kts 23°
2026-04-20 03:11 39.73958 -112.25364 17720 ft 359 kts 23°
2026-04-20 03:11 39.76238 -112.24045 17300 ft 358 kts 23°
2026-04-20 03:12 39.77742 -112.23175 17026 ft 357 kts 23°
2026-04-20 03:12 39.80006 -112.21864 16613 ft 355 kts 23°
2026-04-20 03:12 39.82990 -112.20133 16083 ft 353 kts 23°
2026-04-20 03:12 39.85232 -112.18828 15692 ft 352 kts 24°
2026-04-20 03:13 39.87466 -112.17524 15295 ft 351 kts 24°
2026-04-20 03:13 39.88983 -112.16649 15012 ft 356 kts 23°
2026-04-20 03:13 39.91245 -112.15369 14602 ft 362 kts 23°
2026-04-20 03:13 39.93575 -112.14055 14211 ft 368 kts 23°
2026-04-20 03:14 39.95939 -112.12712 13812 ft 373 kts 23°
2026-04-20 03:14 39.98383 -112.11508 13369 ft 382 kts 17°
2026-04-20 03:14 40.00959 -112.10423 13140 ft 384 kts 17°
2026-04-20 03:14 40.03409 -112.09400 12987 ft 355 kts 16°
2026-04-20 03:15 40.05692 -112.08465 12821 ft 333 kts 15°
2026-04-20 03:15 40.07882 -112.07585 12686 ft 327 kts 15°
2026-04-20 03:15 40.10028 -112.06733 12536 ft 326 kts 15°
2026-04-20 03:15 40.12192 -112.05860 12361 ft 324 kts 15°
2026-04-20 03:16 40.14340 -112.04997 12114 ft 322 kts 15°
2026-04-20 03:16 40.16477 -112.04145 11869 ft 320 kts 15°
2026-04-20 03:16 40.18603 -112.03300 11626 ft 319 kts 15°
2026-04-20 03:16 40.20718 -112.02457 11455 ft 317 kts 15°
2026-04-20 03:17 40.22830 -112.01616 11333 ft 317 kts 15°
2026-04-20 03:17 40.24939 -112.00773 11213 ft 316 kts 15°
2026-04-20 03:17 40.27041 -111.99933 11090 ft 315 kts 15°
2026-04-20 03:17 40.29138 -111.99094 10974 ft 314 kts 15°
2026-04-20 03:18 40.31236 -111.98251 10987 ft 315 kts 15°
2026-04-20 03:18 40.33328 -111.97410 10985 ft 315 kts 15°
2026-04-20 03:18 40.35428 -111.96567 10987 ft 315 kts 15°
2026-04-20 03:18 40.37525 -111.95723 10984 ft 315 kts 16°
2026-04-20 03:19 40.39628 -111.94877 10982 ft 315 kts 15°
2026-04-20 03:19 40.41731 -111.94072 10978 ft 313 kts 14°
2026-04-20 03:19 40.43804 -111.93498 10973 ft 296 kts
2026-04-20 03:19 40.45770 -111.93634 10977 ft 279 kts 351°
2026-04-20 03:20 40.47655 -111.93867 10966 ft 265 kts 352°
2026-04-20 03:20 40.49452 -111.94077 10938 ft 256 kts 352°
2026-04-20 03:20 40.51214 -111.94264 10710 ft 253 kts 353°
2026-04-20 03:20 40.52963 -111.94468 10441 ft 251 kts 352°
2026-04-20 03:21 40.54699 -111.94693 10158 ft 248 kts 352°
2026-04-20 03:21 40.56376 -111.94894 9850 ft 237 kts 353°
2026-04-20 03:21 40.58020 -111.95071 9327 ft 237 kts 354°
2026-04-20 03:21 40.59668 -111.95246 8764 ft 238 kts 353°
2026-04-20 03:22 40.61319 -111.95439 8219 ft 239 kts 353°
2026-04-20 03:22 40.62986 -111.95627 7480 ft 243 kts 354°
2026-04-20 03:22 40.64656 -111.95815 6729 ft 245 kts 354°
2026-04-20 03:22 40.66342 -111.95995 6268 ft 229 kts 354°
2026-04-20 03:23 40.66731 -111.96044 6237 ft 222 kts 353°
2026-04-20 03:24 40.74068 -111.96922 4934 ft 158 kts 353°
2026-04-20 03:24 40.75162 -111.97058 4766 ft 157 kts 354°
2026-04-20 03:24 40.76255 -111.97181 4501 ft 158 kts 354°
2026-04-20 03:25 40.77339 -111.97302 4317 ft 150 kts 354°
2026-04-20 03:25 40.78299 -111.97412 4227 ft 119 kts 355°
2026-04-20 03:25 40.78992 -111.97490 4231 ft 77 kts 355°
2026-04-20 03:25 40.79381 -111.97547 4227 ft 36 kts 346°
2026-04-20 03:26 40.79535 -111.97652 4229 ft 4 kts 327°
2026-04-20 03:26 40.79561 -111.97674 4225 ft 6 kts 327°
2026-04-20 03:26 40.79590 -111.97701 4225 ft 1 kts 324°
2026-04-20 03:26 40.79595 -111.97705 4229 ft 2 kts 324°
2026-04-20 03:27 40.79639 -111.97746 4226 ft 13 kts 325°
2026-04-20 03:27 40.79641 -111.97775 4226 ft 9 kts 187°
2026-04-20 03:27 40.79539 -111.97771 4227 ft 17 kts 174°
2026-04-20 03:27 40.79417 -111.97757 4227 ft 17 kts 174°
2026-04-20 03:28 40.79297 -111.97744 4229 ft 18 kts 175°
2026-04-20 03:28 40.79169 -111.97729 4230 ft 19 kts 175°
2026-04-20 03:28 40.78926 -111.97700 4235 ft 14 kts 175°
2026-04-20 03:29 40.78840 -111.97715 4231 ft 13 kts 224°
2026-04-20 03:29 40.78824 -111.97814 4234 ft 11 kts 265°
2026-04-20 03:29 40.78813 -111.97921 4232 ft 14 kts 262°
2026-04-20 03:29 40.78802 -111.98070 4232 ft 18 kts 265°
2026-04-20 03:30 40.78790 -111.98246 4230 ft 19 kts 265°
2026-04-20 03:30 40.78779 -111.98408 4233 ft 18 kts 265°
2026-04-20 03:30 40.78771 -111.98539 4232 ft 9 kts 267°
2026-04-20 03:30 40.78786 -111.98594 4231 ft 7 kts 315°
2026-04-20 03:31 40.78807 -111.98606 4231 ft 2 kts 347°
2026-04-20 03:31 40.78831 -111.98609 4231 ft 4 kts 354°
2026-04-20 03:31 40.78840 -111.98611 4231 ft 0 kts 354°
2026-04-20 03:31 40.78841 -111.98611 4231 ft 0 kts 354°